Overview Statistics Trail Chart Weather Telemetry Raw packets
 

This is the latest recevied weather packets stored in our database for station/object KF7SOJ. If no packets are shown the sender has not sent any weather packets the latest 10 day(s).

<< 60 61 62 63 64 65 66 >>
Time Temp. Humidity Pressure Rain* Wind** Luminosity Snow
1788198245 22.78° C 26% 934.2 hPa 0 mm - 780 W/m² -
1788197943 22.78° C 26% 934.1 hPa 0 mm - 771 W/m² -
1788197638 22.22° C 27% 934.1 hPa 0 mm - 762 W/m² -
1788197334 22.22° C 26% 934.3 hPa 0 mm - 753 W/m² -
1788197029 22.22° C 28% 934.2 hPa 0 mm - 743 W/m² -
1788196729 21.67° C 25% 934.3 hPa 0 mm - 733 W/m² -
1788196425 21.67° C 28% 934.1 hPa 0 mm - 722 W/m² -
1788196122 21.67° C 27% 934.1 hPa 0 mm - 710 W/m² -
1788195818 21.11° C 27% 934.1 hPa 0 mm - 700 W/m² -
1788195514 21.67° C 28% 934.2 hPa 0 mm - 688 W/m² -
1788195210 21.67° C 28% 934.1 hPa 0 mm - 676 W/m² -
1788194906 21.11° C 27% 934.2 hPa 0 mm - 662 W/m² -
1788194602 20.56° C 31% 934.1 hPa 0 mm - 648 W/m² -
1788194298 20.56° C 29% 934.1 hPa 0 mm - 634 W/m² -
1788193993 20.56° C 31% 934.1 hPa 0 mm - 622 W/m² -
1788193691 20° C 31% 934.2 hPa 0 mm - 606 W/m² -
1788193387 20° C 33% 934.2 hPa 0 mm - 592 W/m² -
1788193085 19.44° C 33% 934.3 hPa 0 mm - 579 W/m² -
1788192782 18.89° C 36% 934.4 hPa 0 mm - 563 W/m² -
1788192481 18.33° C 39% 934.2 hPa 0 mm - 546 W/m² -
1788192177 18.33° C 38% 934.3 hPa 0 mm - 528 W/m² -
1788191876 18.33° C 39% 934.6 hPa 0 mm - 515 W/m² -
1788191571 18.33° C 40% 934.4 hPa 0 mm - 499 W/m² -
1788191267 18.33° C 39% 934.4 hPa 0 mm - 483 W/m² -
1788190963 18.33° C 40% 934.4 hPa 0 mm - 467 W/m² -

* Rain latest hour (hover to see other rain measurements)
** Current wind speed in m/s (hover to see current wind gust speed)